Index of /20260415/WXO-DD/model_gdps/15km/12/087
Name Last modified Size Description
Parent Directory -
20260415T12Z_MSC_GDPS_AbsoluteVorticity_IsbL-0200_LatLon0.15_PT087H.grib2 2026-04-15 16:25 1.5M
20260415T12Z_MSC_GDPS_AbsoluteVorticity_IsbL-0250_LatLon0.15_PT087H.grib2 2026-04-15 16:25 1.3M
20260415T12Z_MSC_GDPS_AbsoluteVorticity_IsbL-0500_LatLon0.15_PT087H.grib2 2026-04-15 16:25 1.4M
20260415T12Z_MSC_GDPS_AbsoluteVorticity_IsbL-0700_LatLon0.15_PT087H.grib2 2026-04-15 16:25 1.3M
20260415T12Z_MSC_GDPS_AbsoluteVorticity_IsbL-0850_LatLon0.15_PT087H.grib2 2026-04-15 16:25 1.6M
20260415T12Z_MSC_GDPS_AirTemp_AGL-120m_LatLon0.15_PT087H.grib2 2026-04-15 16:25 905K
20260415T12Z_MSC_GDPS_AirTemp_AGL-2m_LatLon0.15_PT087H.grib2 2026-04-15 16:25 1.0M
20260415T12Z_MSC_GDPS_AirTemp_AGL-40m_LatLon0.15_PT087H.grib2 2026-04-15 16:25 924K
20260415T12Z_MSC_GDPS_AirTemp_AGL-80m_LatLon0.15_PT087H.grib2 2026-04-15 16:25 913K
20260415T12Z_MSC_GDPS_AirTemp_IsbL-0001_LatLon0.15_PT087H.grib2 2026-04-15 16:25 704K
20260415T12Z_MSC_GDPS_AirTemp_IsbL-0005_LatLon0.15_PT087H.grib2 2026-04-15 16:25 682K
20260415T12Z_MSC_GDPS_AirTemp_IsbL-0010_LatLon0.15_PT087H.grib2 2026-04-15 16:25 752K
20260415T12Z_MSC_GDPS_AirTemp_IsbL-0020_LatLon0.15_PT087H.grib2 2026-04-15 16:25 692K
20260415T12Z_MSC_GDPS_AirTemp_IsbL-0030_LatLon0.15_PT087H.grib2 2026-04-15 16:25 743K
20260415T12Z_MSC_GDPS_AirTemp_IsbL-0050_LatLon0.15_PT087H.grib2 2026-04-15 16:25 808K
20260415T12Z_MSC_GDPS_AirTemp_IsbL-0100_LatLon0.15_PT087H.grib2 2026-04-15 16:25 946K
20260415T12Z_MSC_GDPS_AirTemp_IsbL-0150_LatLon0.15_PT087H.grib2 2026-04-15 16:25 967K
20260415T12Z_MSC_GDPS_AirTemp_IsbL-0175_LatLon0.15_PT087H.grib2 2026-04-15 16:25 959K
20260415T12Z_MSC_GDPS_AirTemp_IsbL-0200_LatLon0.15_PT087H.grib2 2026-04-15 16:25 968K
20260415T12Z_MSC_GDPS_AirTemp_IsbL-0225_LatLon0.15_PT087H.grib2 2026-04-15 16:25 967K
20260415T12Z_MSC_GDPS_AirTemp_IsbL-0250_LatLon0.15_PT087H.grib2 2026-04-15 16:25 1.0M
20260415T12Z_MSC_GDPS_AirTemp_IsbL-0275_LatLon0.15_PT087H.grib2 2026-04-15 16:25 1.0M
20260415T12Z_MSC_GDPS_AirTemp_IsbL-0300_LatLon0.15_PT087H.grib2 2026-04-15 16:25 1.0M
20260415T12Z_MSC_GDPS_AirTemp_IsbL-0350_LatLon0.15_PT087H.grib2 2026-04-15 16:25 918K
20260415T12Z_MSC_GDPS_AirTemp_IsbL-0400_LatLon0.15_PT087H.grib2 2026-04-15 16:25 931K
20260415T12Z_MSC_GDPS_AirTemp_IsbL-0450_LatLon0.15_PT087H.grib2 2026-04-15 16:25 954K
20260415T12Z_MSC_GDPS_AirTemp_IsbL-0500_LatLon0.15_PT087H.grib2 2026-04-15 16:25 1.0M
20260415T12Z_MSC_GDPS_AirTemp_IsbL-0550_LatLon0.15_PT087H.grib2 2026-04-15 16:25 1.0M
20260415T12Z_MSC_GDPS_AirTemp_IsbL-0600_LatLon0.15_PT087H.grib2 2026-04-15 16:25 889K
20260415T12Z_MSC_GDPS_AirTemp_IsbL-0650_LatLon0.15_PT087H.grib2 2026-04-15 16:25 915K
20260415T12Z_MSC_GDPS_AirTemp_IsbL-0700_LatLon0.15_PT087H.grib2 2026-04-15 16:25 943K
20260415T12Z_MSC_GDPS_AirTemp_IsbL-0750_LatLon0.15_PT087H.grib2 2026-04-15 16:25 1.0M
20260415T12Z_MSC_GDPS_AirTemp_IsbL-0800_LatLon0.15_PT087H.grib2 2026-04-15 16:25 1.1M
20260415T12Z_MSC_GDPS_AirTemp_IsbL-0850_LatLon0.15_PT087H.grib2 2026-04-15 16:25 1.1M
20260415T12Z_MSC_GDPS_AirTemp_IsbL-0875_LatLon0.15_PT087H.grib2 2026-04-15 16:25 1.1M
20260415T12Z_MSC_GDPS_AirTemp_IsbL-0900_LatLon0.15_PT087H.grib2 2026-04-15 16:25 1.1M
20260415T12Z_MSC_GDPS_AirTemp_IsbL-0925_LatLon0.15_PT087H.grib2 2026-04-15 16:25 1.1M
20260415T12Z_MSC_GDPS_AirTemp_IsbL-0950_LatLon0.15_PT087H.grib2 2026-04-15 16:25 1.1M
20260415T12Z_MSC_GDPS_AirTemp_IsbL-0970_LatLon0.15_PT087H.grib2 2026-04-15 16:25 1.1M
20260415T12Z_MSC_GDPS_AirTemp_IsbL-0985_LatLon0.15_PT087H.grib2 2026-04-15 16:25 1.1M
20260415T12Z_MSC_GDPS_AirTemp_IsbL-1000_LatLon0.15_PT087H.grib2 2026-04-15 16:25 1.1M
20260415T12Z_MSC_GDPS_AirTemp_IsbL-1015_LatLon0.15_PT087H.grib2 2026-04-15 16:25 1.1M
20260415T12Z_MSC_GDPS_Albedo_Sfc_LatLon0.15_PT087H.grib2 2026-04-15 16:25 247K
20260415T12Z_MSC_GDPS_CAPE_Sfc_LatLon0.15_PT087H.grib2 2026-04-15 16:25 3.9M
20260415T12Z_MSC_GDPS_CIN_Sfc_LatLon0.15_PT087H.grib2 2026-04-15 16:25 2.8M
20260415T12Z_MSC_GDPS_CloudWater_EAtm_LatLon0.15_PT087H.grib2 2026-04-15 16:25 526K
20260415T12Z_MSC_GDPS_ConvectivePrecip-Accum_Sfc_LatLon0.15_PT087H.grib2 2026-04-15 16:25 3.2M
20260415T12Z_MSC_GDPS_DewPointDepression_AGL-2m_LatLon0.15_PT087H.grib2 2026-04-15 16:25 746K
20260415T12Z_MSC_GDPS_DewPointDepression_IsbL-0010_LatLon0.15_PT087H.grib2 2026-04-15 16:25 7.8K
20260415T12Z_MSC_GDPS_DewPointDepression_IsbL-0020_LatLon0.15_PT087H.grib2 2026-04-15 16:25 81K
20260415T12Z_MSC_GDPS_DewPointDepression_IsbL-0030_LatLon0.15_PT087H.grib2 2026-04-15 16:25 69K
20260415T12Z_MSC_GDPS_DewPointDepression_IsbL-0050_LatLon0.15_PT087H.grib2 2026-04-15 16:25 356K
20260415T12Z_MSC_GDPS_DewPointDepression_IsbL-0100_LatLon0.15_PT087H.grib2 2026-04-15 16:25 380K
20260415T12Z_MSC_GDPS_DewPointDepression_IsbL-0150_LatLon0.15_PT087H.grib2 2026-04-15 16:25 457K
20260415T12Z_MSC_GDPS_DewPointDepression_IsbL-0175_LatLon0.15_PT087H.grib2 2026-04-15 16:25 538K
20260415T12Z_MSC_GDPS_DewPointDepression_IsbL-0200_LatLon0.15_PT087H.grib2 2026-04-15 16:25 610K
20260415T12Z_MSC_GDPS_DewPointDepression_IsbL-0225_LatLon0.15_PT087H.grib2 2026-04-15 16:25 741K
20260415T12Z_MSC_GDPS_DewPointDepression_IsbL-0250_LatLon0.15_PT087H.grib2 2026-04-15 16:25 869K
20260415T12Z_MSC_GDPS_DewPointDepression_IsbL-0275_LatLon0.15_PT087H.grib2 2026-04-15 16:25 882K
20260415T12Z_MSC_GDPS_DewPointDepression_IsbL-0300_LatLon0.15_PT087H.grib2 2026-04-15 16:25 913K
20260415T12Z_MSC_GDPS_DewPointDepression_IsbL-0350_LatLon0.15_PT087H.grib2 2026-04-15 16:25 937K
20260415T12Z_MSC_GDPS_DewPointDepression_IsbL-0400_LatLon0.15_PT087H.grib2 2026-04-15 16:25 1.0M
20260415T12Z_MSC_GDPS_DewPointDepression_IsbL-0450_LatLon0.15_PT087H.grib2 2026-04-15 16:25 1.0M
20260415T12Z_MSC_GDPS_DewPointDepression_IsbL-0500_LatLon0.15_PT087H.grib2 2026-04-15 16:25 1.0M
20260415T12Z_MSC_GDPS_DewPointDepression_IsbL-0550_LatLon0.15_PT087H.grib2 2026-04-15 16:25 1.0M
20260415T12Z_MSC_GDPS_DewPointDepression_IsbL-0600_LatLon0.15_PT087H.grib2 2026-04-15 16:25 1.0M
20260415T12Z_MSC_GDPS_DewPointDepression_IsbL-0650_LatLon0.15_PT087H.grib2 2026-04-15 16:25 1.1M
20260415T12Z_MSC_GDPS_DewPointDepression_IsbL-0700_LatLon0.15_PT087H.grib2 2026-04-15 16:25 1.1M
20260415T12Z_MSC_GDPS_DewPointDepression_IsbL-0750_LatLon0.15_PT087H.grib2 2026-04-15 16:25 1.1M
20260415T12Z_MSC_GDPS_DewPointDepression_IsbL-0800_LatLon0.15_PT087H.grib2 2026-04-15 16:25 1.2M
20260415T12Z_MSC_GDPS_DewPointDepression_IsbL-0850_LatLon0.15_PT087H.grib2 2026-04-15 16:25 1.2M
20260415T12Z_MSC_GDPS_DewPointDepression_IsbL-0875_LatLon0.15_PT087H.grib2 2026-04-15 16:25 1.1M
20260415T12Z_MSC_GDPS_DewPointDepression_IsbL-0900_LatLon0.15_PT087H.grib2 2026-04-15 16:25 1.1M
20260415T12Z_MSC_GDPS_DewPointDepression_IsbL-0925_LatLon0.15_PT087H.grib2 2026-04-15 16:25 1.0M
20260415T12Z_MSC_GDPS_DewPointDepression_IsbL-0950_LatLon0.15_PT087H.grib2 2026-04-15 16:25 1.0M
20260415T12Z_MSC_GDPS_DewPointDepression_IsbL-0970_LatLon0.15_PT087H.grib2 2026-04-15 16:25 1.0M
20260415T12Z_MSC_GDPS_DewPointDepression_IsbL-0985_LatLon0.15_PT087H.grib2 2026-04-15 16:25 1.0M
20260415T12Z_MSC_GDPS_DewPointDepression_IsbL-1000_LatLon0.15_PT087H.grib2 2026-04-15 16:25 961K
20260415T12Z_MSC_GDPS_DewPointDepression_IsbL-1015_LatLon0.15_PT087H.grib2 2026-04-15 16:25 899K
20260415T12Z_MSC_GDPS_DewPoint_AGL-2m_LatLon0.15_PT087H.grib2 2026-04-15 16:25 603K
20260415T12Z_MSC_GDPS_DownwardLongwaveRadiationFlux-Accum_Sfc_LatLon0.15_PT087H.grib2 2026-04-15 16:25 701K
20260415T12Z_MSC_GDPS_DownwardShortwaveRadiationFlux-Accum_NTAtm_LatLon0.15_PT087H.grib2 2026-04-15 16:25 295K
20260415T12Z_MSC_GDPS_DownwardShortwaveRadiationFlux-Accum_Sfc_LatLon0.15_PT087H.grib2 2026-04-15 16:25 932K
20260415T12Z_MSC_GDPS_FreezingRain-Accum1h_Sfc_LatLon0.15_PT087H.grib2 2026-04-15 16:25 43K
20260415T12Z_MSC_GDPS_FreezingRain-Accum3h_Sfc_LatLon0.15_PT087H.grib2 2026-04-15 16:25 58K
20260415T12Z_MSC_GDPS_FreezingRain-Accum_Sfc_LatLon0.15_PT087H.grib2 2026-04-15 16:25 259K
20260415T12Z_MSC_GDPS_GeopotentialHeight_IsbL-0001_LatLon0.15_PT087H.grib2 2026-04-15 16:25 373K
20260415T12Z_MSC_GDPS_GeopotentialHeight_IsbL-0005_LatLon0.15_PT087H.grib2 2026-04-15 16:25 489K
20260415T12Z_MSC_GDPS_GeopotentialHeight_IsbL-0010_LatLon0.15_PT087H.grib2 2026-04-15 16:25 429K
20260415T12Z_MSC_GDPS_GeopotentialHeight_IsbL-0020_LatLon0.15_PT087H.grib2 2026-04-15 16:25 569K
20260415T12Z_MSC_GDPS_GeopotentialHeight_IsbL-0030_LatLon0.15_PT087H.grib2 2026-04-15 16:25 571K
20260415T12Z_MSC_GDPS_GeopotentialHeight_IsbL-0050_LatLon0.15_PT087H.grib2 2026-04-15 16:25 576K
20260415T12Z_MSC_GDPS_GeopotentialHeight_IsbL-0100_LatLon0.15_PT087H.grib2 2026-04-15 16:25 611K
20260415T12Z_MSC_GDPS_GeopotentialHeight_IsbL-0150_LatLon0.15_PT087H.grib2 2026-04-15 16:25 626K
20260415T12Z_MSC_GDPS_GeopotentialHeight_IsbL-0175_LatLon0.15_PT087H.grib2 2026-04-15 16:25 631K
20260415T12Z_MSC_GDPS_GeopotentialHeight_IsbL-0200_LatLon0.15_PT087H.grib2 2026-04-15 16:25 634K
20260415T12Z_MSC_GDPS_GeopotentialHeight_IsbL-0225_LatLon0.15_PT087H.grib2 2026-04-15 16:25 636K
20260415T12Z_MSC_GDPS_GeopotentialHeight_IsbL-0250_LatLon0.15_PT087H.grib2 2026-04-15 16:25 637K
20260415T12Z_MSC_GDPS_GeopotentialHeight_IsbL-0275_LatLon0.15_PT087H.grib2 2026-04-15 16:25 634K
20260415T12Z_MSC_GDPS_GeopotentialHeight_IsbL-0300_LatLon0.15_PT087H.grib2 2026-04-15 16:25 633K
20260415T12Z_MSC_GDPS_GeopotentialHeight_IsbL-0350_LatLon0.15_PT087H.grib2 2026-04-15 16:25 625K
20260415T12Z_MSC_GDPS_GeopotentialHeight_IsbL-0400_LatLon0.15_PT087H.grib2 2026-04-15 16:25 615K
20260415T12Z_MSC_GDPS_GeopotentialHeight_IsbL-0450_LatLon0.15_PT087H.grib2 2026-04-15 16:25 536K
20260415T12Z_MSC_GDPS_GeopotentialHeight_IsbL-0500_LatLon0.15_PT087H.grib2 2026-04-15 16:25 527K
20260415T12Z_MSC_GDPS_GeopotentialHeight_IsbL-0550_LatLon0.15_PT087H.grib2 2026-04-15 16:25 689K
20260415T12Z_MSC_GDPS_GeopotentialHeight_IsbL-0600_LatLon0.15_PT087H.grib2 2026-04-15 16:25 683K
20260415T12Z_MSC_GDPS_GeopotentialHeight_IsbL-0650_LatLon0.15_PT087H.grib2 2026-04-15 16:25 679K
20260415T12Z_MSC_GDPS_GeopotentialHeight_IsbL-0700_LatLon0.15_PT087H.grib2 2026-04-15 16:25 674K
20260415T12Z_MSC_GDPS_GeopotentialHeight_IsbL-0750_LatLon0.15_PT087H.grib2 2026-04-15 16:25 679K
20260415T12Z_MSC_GDPS_GeopotentialHeight_IsbL-0800_LatLon0.15_PT087H.grib2 2026-04-15 16:25 629K
20260415T12Z_MSC_GDPS_GeopotentialHeight_IsbL-0850_LatLon0.15_PT087H.grib2 2026-04-15 16:25 641K
20260415T12Z_MSC_GDPS_GeopotentialHeight_IsbL-0875_LatLon0.15_PT087H.grib2 2026-04-15 16:25 647K
20260415T12Z_MSC_GDPS_GeopotentialHeight_IsbL-0900_LatLon0.15_PT087H.grib2 2026-04-15 16:25 655K
20260415T12Z_MSC_GDPS_GeopotentialHeight_IsbL-0925_LatLon0.15_PT087H.grib2 2026-04-15 16:25 724K
20260415T12Z_MSC_GDPS_GeopotentialHeight_IsbL-0950_LatLon0.15_PT087H.grib2 2026-04-15 16:25 735K
20260415T12Z_MSC_GDPS_GeopotentialHeight_IsbL-0970_LatLon0.15_PT087H.grib2 2026-04-15 16:25 744K
20260415T12Z_MSC_GDPS_GeopotentialHeight_IsbL-0985_LatLon0.15_PT087H.grib2 2026-04-15 16:25 762K
20260415T12Z_MSC_GDPS_GeopotentialHeight_IsbL-1000_LatLon0.15_PT087H.grib2 2026-04-15 16:25 783K
20260415T12Z_MSC_GDPS_GeopotentialHeight_IsbL-1015_LatLon0.15_PT087H.grib2 2026-04-15 16:25 807K
20260415T12Z_MSC_GDPS_Humidex_Sfc_LatLon0.15_PT087H.grib2 2026-04-15 16:25 5.3M
20260415T12Z_MSC_GDPS_IcePellets-Accum1h_Sfc_LatLon0.15_PT087H.grib2 2026-04-15 16:25 26K
20260415T12Z_MSC_GDPS_IcePellets-Accum3h_Sfc_LatLon0.15_PT087H.grib2 2026-04-15 16:25 34K
20260415T12Z_MSC_GDPS_IcePellets-Accum_Sfc_LatLon0.15_PT087H.grib2 2026-04-15 16:25 125K
20260415T12Z_MSC_GDPS_KIndex_Sfc_LatLon0.15_PT087H.grib2 2026-04-15 16:25 6.5M
20260415T12Z_MSC_GDPS_LatentHeatNetFlux_Sfc_LatLon0.15_PT087H.grib2 2026-04-15 16:25 656K
20260415T12Z_MSC_GDPS_LiftedIndex-MU-VT_IsbL-0500_LatLon0.15_PT087H.grib2 2026-04-15 16:25 5.3M
20260415T12Z_MSC_GDPS_NetLongwaveRadiationFlux-Accum_Sfc_LatLon0.15_PT087H.grib2 2026-04-15 16:25 929K
20260415T12Z_MSC_GDPS_NetShortwaveRadiationFlux-Accum_Sfc_LatLon0.15_PT087H.grib2 2026-04-15 16:25 924K
20260415T12Z_MSC_GDPS_O3MixingRatio_LatLon0.15_PT087H.grib2 2026-04-15 16:49 2.3M
20260415T12Z_MSC_GDPS_O3_EAtm_LatLon0.15_PT087H.grib2 2026-04-15 16:49 2.1M
20260415T12Z_MSC_GDPS_PlanetaryBoundaryLayerHeight_Sfc_LatLon0.15_PT087H.grib2 2026-04-15 16:25 2.4M
20260415T12Z_MSC_GDPS_Precip-Accum1h_Sfc_LatLon0.15_PT087H.grib2 2026-04-15 16:25 3.2M
20260415T12Z_MSC_GDPS_Precip-Accum3h_Sfc_LatLon0.15_PT087H.grib2 2026-04-15 16:25 3.4M
20260415T12Z_MSC_GDPS_Precip-Accum_Sfc_LatLon0.15_PT087H.grib2 2026-04-15 16:25 4.9M
20260415T12Z_MSC_GDPS_PrecipRate_Sfc_LatLon0.15_PT087H.grib2 2026-04-15 16:25 2.9M
20260415T12Z_MSC_GDPS_PrecipType-Instant_Sfc_LatLon0.15_PT087H.grib2 2026-04-15 16:25 1.5M
20260415T12Z_MSC_GDPS_Pressure_MSL_LatLon0.15_PT087H.grib2 2026-04-15 16:25 718K
20260415T12Z_MSC_GDPS_Pressure_PVU-1.5_LatLon0.15_PT087H.grib2 2026-04-15 16:25 5.8M
20260415T12Z_MSC_GDPS_Pressure_PVU-1_LatLon0.15_PT087H.grib2 2026-04-15 16:25 6.0M
20260415T12Z_MSC_GDPS_Pressure_PVU-2_LatLon0.15_PT087H.grib2 2026-04-15 16:25 5.6M
20260415T12Z_MSC_GDPS_Pressure_Sfc_LatLon0.15_PT087H.grib2 2026-04-15 16:25 1.1M
20260415T12Z_MSC_GDPS_RadiativeTemp_Sfc_LatLon0.15_PT087H.grib2 2026-04-15 16:25 662K
20260415T12Z_MSC_GDPS_Rain-Accum1h_Sfc_LatLon0.15_PT087H.grib2 2026-04-15 16:25 1.5M
20260415T12Z_MSC_GDPS_Rain-Accum3h_Sfc_LatLon0.15_PT087H.grib2 2026-04-15 16:25 1.6M
20260415T12Z_MSC_GDPS_Rain-Accum_Sfc_LatLon0.15_PT087H.grib2 2026-04-15 16:25 3.7M
20260415T12Z_MSC_GDPS_RelativeHumidity_AGL-2m_LatLon0.15_PT087H.grib2 2026-04-15 16:25 1.0M
20260415T12Z_MSC_GDPS_RelativeHumidity_IsbL-0010_LatLon0.15_PT087H.grib2 2026-04-15 16:25 256K
20260415T12Z_MSC_GDPS_RelativeHumidity_IsbL-0020_LatLon0.15_PT087H.grib2 2026-04-15 16:25 373K
20260415T12Z_MSC_GDPS_RelativeHumidity_IsbL-0030_LatLon0.15_PT087H.grib2 2026-04-15 16:25 375K
20260415T12Z_MSC_GDPS_RelativeHumidity_IsbL-0050_LatLon0.15_PT087H.grib2 2026-04-15 16:25 410K
20260415T12Z_MSC_GDPS_RelativeHumidity_IsbL-0100_LatLon0.15_PT087H.grib2 2026-04-15 16:25 484K
20260415T12Z_MSC_GDPS_RelativeHumidity_IsbL-0150_LatLon0.15_PT087H.grib2 2026-04-15 16:25 654K
20260415T12Z_MSC_GDPS_RelativeHumidity_IsbL-0175_LatLon0.15_PT087H.grib2 2026-04-15 16:25 789K
20260415T12Z_MSC_GDPS_RelativeHumidity_IsbL-0200_LatLon0.15_PT087H.grib2 2026-04-15 16:25 685K
20260415T12Z_MSC_GDPS_RelativeHumidity_IsbL-0225_LatLon0.15_PT087H.grib2 2026-04-15 16:25 770K
20260415T12Z_MSC_GDPS_RelativeHumidity_IsbL-0250_LatLon0.15_PT087H.grib2 2026-04-15 16:25 864K
20260415T12Z_MSC_GDPS_RelativeHumidity_IsbL-0275_LatLon0.15_PT087H.grib2 2026-04-15 16:25 889K
20260415T12Z_MSC_GDPS_RelativeHumidity_IsbL-0300_LatLon0.15_PT087H.grib2 2026-04-15 16:25 931K
20260415T12Z_MSC_GDPS_RelativeHumidity_IsbL-0350_LatLon0.15_PT087H.grib2 2026-04-15 16:25 946K
20260415T12Z_MSC_GDPS_RelativeHumidity_IsbL-0400_LatLon0.15_PT087H.grib2 2026-04-15 16:25 971K
20260415T12Z_MSC_GDPS_RelativeHumidity_IsbL-0450_LatLon0.15_PT087H.grib2 2026-04-15 16:25 1.0M
20260415T12Z_MSC_GDPS_RelativeHumidity_IsbL-0500_LatLon0.15_PT087H.grib2 2026-04-15 16:25 1.0M
20260415T12Z_MSC_GDPS_RelativeHumidity_IsbL-0550_LatLon0.15_PT087H.grib2 2026-04-15 16:25 1.0M
20260415T12Z_MSC_GDPS_RelativeHumidity_IsbL-0600_LatLon0.15_PT087H.grib2 2026-04-15 16:25 1.0M
20260415T12Z_MSC_GDPS_RelativeHumidity_IsbL-0650_LatLon0.15_PT087H.grib2 2026-04-15 16:25 1.1M
20260415T12Z_MSC_GDPS_RelativeHumidity_IsbL-0700_LatLon0.15_PT087H.grib2 2026-04-15 16:25 1.1M
20260415T12Z_MSC_GDPS_RelativeHumidity_IsbL-0750_LatLon0.15_PT087H.grib2 2026-04-15 16:25 1.2M
20260415T12Z_MSC_GDPS_RelativeHumidity_IsbL-0800_LatLon0.15_PT087H.grib2 2026-04-15 16:25 1.2M
20260415T12Z_MSC_GDPS_RelativeHumidity_IsbL-0850_LatLon0.15_PT087H.grib2 2026-04-15 16:25 1.3M
20260415T12Z_MSC_GDPS_RelativeHumidity_IsbL-0875_LatLon0.15_PT087H.grib2 2026-04-15 16:25 1.2M
20260415T12Z_MSC_GDPS_RelativeHumidity_IsbL-0900_LatLon0.15_PT087H.grib2 2026-04-15 16:25 1.2M
20260415T12Z_MSC_GDPS_RelativeHumidity_IsbL-0925_LatLon0.15_PT087H.grib2 2026-04-15 16:25 1.2M
20260415T12Z_MSC_GDPS_RelativeHumidity_IsbL-0950_LatLon0.15_PT087H.grib2 2026-04-15 16:25 1.2M
20260415T12Z_MSC_GDPS_RelativeHumidity_IsbL-0970_LatLon0.15_PT087H.grib2 2026-04-15 16:25 1.2M
20260415T12Z_MSC_GDPS_RelativeHumidity_IsbL-0985_LatLon0.15_PT087H.grib2 2026-04-15 16:25 1.1M
20260415T12Z_MSC_GDPS_RelativeHumidity_IsbL-1000_LatLon0.15_PT087H.grib2 2026-04-15 16:25 1.1M
20260415T12Z_MSC_GDPS_RelativeHumidity_IsbL-1015_LatLon0.15_PT087H.grib2 2026-04-15 16:25 1.0M
20260415T12Z_MSC_GDPS_RelativeVorticity_IsbL-0200_LatLon0.15_PT087H.grib2 2026-04-15 16:25 1.5M
20260415T12Z_MSC_GDPS_RelativeVorticity_IsbL-0250_LatLon0.15_PT087H.grib2 2026-04-15 16:25 1.3M
20260415T12Z_MSC_GDPS_RelativeVorticity_IsbL-0500_LatLon0.15_PT087H.grib2 2026-04-15 16:25 1.4M
20260415T12Z_MSC_GDPS_RelativeVorticity_IsbL-0700_LatLon0.15_PT087H.grib2 2026-04-15 16:25 1.3M
20260415T12Z_MSC_GDPS_RelativeVorticity_IsbL-0850_LatLon0.15_PT087H.grib2 2026-04-15 16:25 1.6M
20260415T12Z_MSC_GDPS_Runoff-Accum_Sfc_LatLon0.15_PT087H.grib2 2026-04-15 16:25 136K
20260415T12Z_MSC_GDPS_SensibleHeatNetFlux_Sfc_LatLon0.15_PT087H.grib2 2026-04-15 16:25 612K
20260415T12Z_MSC_GDPS_ShowalterIndex_IsbL-0500_LatLon0.15_PT087H.grib2 2026-04-15 16:25 6.2M
20260415T12Z_MSC_GDPS_Snow-Accum1h_Sfc_LatLon0.15_PT087H.grib2 2026-04-15 16:25 1.1M
20260415T12Z_MSC_GDPS_Snow-Accum3h_Sfc_LatLon0.15_PT087H.grib2 2026-04-15 16:25 917K
20260415T12Z_MSC_GDPS_Snow-Accum_Sfc_LatLon0.15_PT087H.grib2 2026-04-15 16:25 2.0M
20260415T12Z_MSC_GDPS_SnowDensity_Sfc_LatLon0.15_PT087H.grib2 2026-04-15 16:25 270K
20260415T12Z_MSC_GDPS_SnowDepth_Sfc_LatLon0.15_PT087H.grib2 2026-04-15 16:25 1.8M
20260415T12Z_MSC_GDPS_SoilTemp_DBS-0to10cm_LatLon0.15_PT087H.grib2 2026-04-15 16:25 505K
20260415T12Z_MSC_GDPS_SoilTemp_Sfc_LatLon0.15_PT087H.grib2 2026-04-15 16:25 578K
20260415T12Z_MSC_GDPS_SoilVolumetricIceContent_Sfc_LatLon0.15_PT087H.grib2 2026-04-15 16:25 223K
20260415T12Z_MSC_GDPS_SoilVolumetricWaterContent_DBS-0to10cm_LatLon0.15_PT087H.grib2 2026-04-15 16:25 554K
20260415T12Z_MSC_GDPS_SoilVolumetricWaterContent_DBS-0to1cm_LatLon0.15_PT087H.grib2 2026-04-15 16:25 655K
20260415T12Z_MSC_GDPS_SpecificHumidity_AGL-120m_LatLon0.15_PT087H.grib2 2026-04-15 16:25 1.1M
20260415T12Z_MSC_GDPS_SpecificHumidity_AGL-2m_LatLon0.15_PT087H.grib2 2026-04-15 16:25 1.2M
20260415T12Z_MSC_GDPS_SpecificHumidity_AGL-40m_LatLon0.15_PT087H.grib2 2026-04-15 16:25 1.1M
20260415T12Z_MSC_GDPS_SpecificHumidity_AGL-80m_LatLon0.15_PT087H.grib2 2026-04-15 16:25 1.1M
20260415T12Z_MSC_GDPS_SpecificHumidity_IsbL-0001_LatLon0.15_PT087H.grib2 2026-04-15 16:25 1.2M
20260415T12Z_MSC_GDPS_SpecificHumidity_IsbL-0005_LatLon0.15_PT087H.grib2 2026-04-15 16:25 1.1M
20260415T12Z_MSC_GDPS_SpecificHumidity_IsbL-0010_LatLon0.15_PT087H.grib2 2026-04-15 16:25 1.3M
20260415T12Z_MSC_GDPS_SpecificHumidity_IsbL-0020_LatLon0.15_PT087H.grib2 2026-04-15 16:25 1.6M
20260415T12Z_MSC_GDPS_SpecificHumidity_IsbL-0030_LatLon0.15_PT087H.grib2 2026-04-15 16:25 1.6M
20260415T12Z_MSC_GDPS_SpecificHumidity_IsbL-0050_LatLon0.15_PT087H.grib2 2026-04-15 16:25 1.3M
20260415T12Z_MSC_GDPS_SpecificHumidity_IsbL-0100_LatLon0.15_PT087H.grib2 2026-04-15 16:25 1.3M
20260415T12Z_MSC_GDPS_SpecificHumidity_IsbL-0150_LatLon0.15_PT087H.grib2 2026-04-15 16:25 1.3M
20260415T12Z_MSC_GDPS_SpecificHumidity_IsbL-0175_LatLon0.15_PT087H.grib2 2026-04-15 16:25 1.3M
20260415T12Z_MSC_GDPS_SpecificHumidity_IsbL-0200_LatLon0.15_PT087H.grib2 2026-04-15 16:25 1.3M
20260415T12Z_MSC_GDPS_SpecificHumidity_IsbL-0225_LatLon0.15_PT087H.grib2 2026-04-15 16:25 1.3M
20260415T12Z_MSC_GDPS_SpecificHumidity_IsbL-0250_LatLon0.15_PT087H.grib2 2026-04-15 16:25 1.5M
20260415T12Z_MSC_GDPS_SpecificHumidity_IsbL-0275_LatLon0.15_PT087H.grib2 2026-04-15 16:25 1.3M
20260415T12Z_MSC_GDPS_SpecificHumidity_IsbL-0300_LatLon0.15_PT087H.grib2 2026-04-15 16:25 1.2M
20260415T12Z_MSC_GDPS_SpecificHumidity_IsbL-0350_LatLon0.15_PT087H.grib2 2026-04-15 16:25 1.2M
20260415T12Z_MSC_GDPS_SpecificHumidity_IsbL-0400_LatLon0.15_PT087H.grib2 2026-04-15 16:25 1.4M
20260415T12Z_MSC_GDPS_SpecificHumidity_IsbL-0450_LatLon0.15_PT087H.grib2 2026-04-15 16:25 1.6M
20260415T12Z_MSC_GDPS_SpecificHumidity_IsbL-0500_LatLon0.15_PT087H.grib2 2026-04-15 16:25 1.4M
20260415T12Z_MSC_GDPS_SpecificHumidity_IsbL-0550_LatLon0.15_PT087H.grib2 2026-04-15 16:25 1.6M
20260415T12Z_MSC_GDPS_SpecificHumidity_IsbL-0600_LatLon0.15_PT087H.grib2 2026-04-15 16:25 1.7M
20260415T12Z_MSC_GDPS_SpecificHumidity_IsbL-0650_LatLon0.15_PT087H.grib2 2026-04-15 16:25 1.5M
20260415T12Z_MSC_GDPS_SpecificHumidity_IsbL-0700_LatLon0.15_PT087H.grib2 2026-04-15 16:25 1.6M
20260415T12Z_MSC_GDPS_SpecificHumidity_IsbL-0750_LatLon0.15_PT087H.grib2 2026-04-15 16:25 1.7M
20260415T12Z_MSC_GDPS_SpecificHumidity_IsbL-0800_LatLon0.15_PT087H.grib2 2026-04-15 16:25 1.8M
20260415T12Z_MSC_GDPS_SpecificHumidity_IsbL-0850_LatLon0.15_PT087H.grib2 2026-04-15 16:25 1.9M
20260415T12Z_MSC_GDPS_SpecificHumidity_IsbL-0875_LatLon0.15_PT087H.grib2 2026-04-15 16:25 1.9M
20260415T12Z_MSC_GDPS_SpecificHumidity_IsbL-0900_LatLon0.15_PT087H.grib2 2026-04-15 16:25 1.9M
20260415T12Z_MSC_GDPS_SpecificHumidity_IsbL-0925_LatLon0.15_PT087H.grib2 2026-04-15 16:25 1.9M
20260415T12Z_MSC_GDPS_SpecificHumidity_IsbL-0950_LatLon0.15_PT087H.grib2 2026-04-15 16:25 1.5M
20260415T12Z_MSC_GDPS_SpecificHumidity_IsbL-0970_LatLon0.15_PT087H.grib2 2026-04-15 16:25 1.5M
20260415T12Z_MSC_GDPS_SpecificHumidity_IsbL-0985_LatLon0.15_PT087H.grib2 2026-04-15 16:25 1.5M
20260415T12Z_MSC_GDPS_SpecificHumidity_IsbL-1000_LatLon0.15_PT087H.grib2 2026-04-15 16:25 1.5M
20260415T12Z_MSC_GDPS_SpecificHumidity_IsbL-1015_LatLon0.15_PT087H.grib2 2026-04-15 16:25 1.4M
20260415T12Z_MSC_GDPS_SpecificHumidity_Sfc_LatLon0.15_PT087H.grib2 2026-04-15 16:25 627K
20260415T12Z_MSC_GDPS_Thickness_IsbL-0850to0700_LatLon0.15_PT087H.grib2 2026-04-15 16:25 465K
20260415T12Z_MSC_GDPS_Thickness_IsbL-1000to0500_LatLon0.15_PT087H.grib2 2026-04-15 16:25 376K
20260415T12Z_MSC_GDPS_Thickness_IsbL-1000to0850_LatLon0.15_PT087H.grib2 2026-04-15 16:25 489K
20260415T12Z_MSC_GDPS_TotalCloudCover_Sfc_LatLon0.15_PT087H.grib2 2026-04-15 16:25 811K
20260415T12Z_MSC_GDPS_TotalTotalsIndex_Sfc_LatLon0.15_PT087H.grib2 2026-04-15 16:25 6.2M
20260415T12Z_MSC_GDPS_UVIndex-ClearSky_Sfc_LatLon0.15_PT087H.grib2 2026-04-15 16:49 1.0M
20260415T12Z_MSC_GDPS_UVIndex_Sfc_LatLon0.15_PT087H.grib2 2026-04-15 16:49 1.4M
20260415T12Z_MSC_GDPS_UpwardLongwaveRadiationFlux_NTAtm_LatLon0.15_PT087H.grib2 2026-04-15 16:25 821K
20260415T12Z_MSC_GDPS_VerticalVelocity_IsbL-0200_LatLon0.15_PT087H.grib2 2026-04-15 16:25 1.2M
20260415T12Z_MSC_GDPS_VerticalVelocity_IsbL-0250_LatLon0.15_PT087H.grib2 2026-04-15 16:25 1.1M
20260415T12Z_MSC_GDPS_VerticalVelocity_IsbL-0500_LatLon0.15_PT087H.grib2 2026-04-15 16:25 1.3M
20260415T12Z_MSC_GDPS_VerticalVelocity_IsbL-0600_LatLon0.15_PT087H.grib2 2026-04-15 16:25 1.3M
20260415T12Z_MSC_GDPS_VerticalVelocity_IsbL-0700_LatLon0.15_PT087H.grib2 2026-04-15 16:25 1.1M
20260415T12Z_MSC_GDPS_VerticalVelocity_IsbL-0850_LatLon0.15_PT087H.grib2 2026-04-15 16:25 1.3M
20260415T12Z_MSC_GDPS_WindChill_Sfc_LatLon0.15_PT087H.grib2 2026-04-15 16:25 5.3M
20260415T12Z_MSC_GDPS_WindDir_AGL-10m_LatLon0.15_PT087H.grib2 2026-04-15 16:25 1.3M
20260415T12Z_MSC_GDPS_WindDir_AGL-120m_LatLon0.15_PT087H.grib2 2026-04-15 16:25 1.4M
20260415T12Z_MSC_GDPS_WindDir_AGL-40m_LatLon0.15_PT087H.grib2 2026-04-15 16:25 1.4M
20260415T12Z_MSC_GDPS_WindDir_AGL-80m_LatLon0.15_PT087H.grib2 2026-04-15 16:25 1.4M
20260415T12Z_MSC_GDPS_WindDir_IsbL-0001_LatLon0.15_PT087H.grib2 2026-04-15 16:25 648K
20260415T12Z_MSC_GDPS_WindDir_IsbL-0005_LatLon0.15_PT087H.grib2 2026-04-15 16:25 804K
20260415T12Z_MSC_GDPS_WindDir_IsbL-0010_LatLon0.15_PT087H.grib2 2026-04-15 16:25 863K
20260415T12Z_MSC_GDPS_WindDir_IsbL-0020_LatLon0.15_PT087H.grib2 2026-04-15 16:25 918K
20260415T12Z_MSC_GDPS_WindDir_IsbL-0030_LatLon0.15_PT087H.grib2 2026-04-15 16:25 882K
20260415T12Z_MSC_GDPS_WindDir_IsbL-0050_LatLon0.15_PT087H.grib2 2026-04-15 16:25 946K
20260415T12Z_MSC_GDPS_WindDir_IsbL-0100_LatLon0.15_PT087H.grib2 2026-04-15 16:25 1.0M
20260415T12Z_MSC_GDPS_WindDir_IsbL-0150_LatLon0.15_PT087H.grib2 2026-04-15 16:25 1.0M
20260415T12Z_MSC_GDPS_WindDir_IsbL-0175_LatLon0.15_PT087H.grib2 2026-04-15 16:25 1.0M
20260415T12Z_MSC_GDPS_WindDir_IsbL-0200_LatLon0.15_PT087H.grib2 2026-04-15 16:25 1.1M
20260415T12Z_MSC_GDPS_WindDir_IsbL-0225_LatLon0.15_PT087H.grib2 2026-04-15 16:25 1.1M
20260415T12Z_MSC_GDPS_WindDir_IsbL-0250_LatLon0.15_PT087H.grib2 2026-04-15 16:25 1.1M
20260415T12Z_MSC_GDPS_WindDir_IsbL-0275_LatLon0.15_PT087H.grib2 2026-04-15 16:25 1.2M
20260415T12Z_MSC_GDPS_WindDir_IsbL-0300_LatLon0.15_PT087H.grib2 2026-04-15 16:25 1.2M
20260415T12Z_MSC_GDPS_WindDir_IsbL-0350_LatLon0.15_PT087H.grib2 2026-04-15 16:25 1.2M
20260415T12Z_MSC_GDPS_WindDir_IsbL-0400_LatLon0.15_PT087H.grib2 2026-04-15 16:25 1.2M
20260415T12Z_MSC_GDPS_WindDir_IsbL-0450_LatLon0.15_PT087H.grib2 2026-04-15 16:25 1.3M
20260415T12Z_MSC_GDPS_WindDir_IsbL-0500_LatLon0.15_PT087H.grib2 2026-04-15 16:25 1.3M
20260415T12Z_MSC_GDPS_WindDir_IsbL-0550_LatLon0.15_PT087H.grib2 2026-04-15 16:25 1.4M
20260415T12Z_MSC_GDPS_WindDir_IsbL-0600_LatLon0.15_PT087H.grib2 2026-04-15 16:25 1.4M
20260415T12Z_MSC_GDPS_WindDir_IsbL-0650_LatLon0.15_PT087H.grib2 2026-04-15 16:25 1.5M
20260415T12Z_MSC_GDPS_WindDir_IsbL-0700_LatLon0.15_PT087H.grib2 2026-04-15 16:25 1.6M
20260415T12Z_MSC_GDPS_WindDir_IsbL-0750_LatLon0.15_PT087H.grib2 2026-04-15 16:25 1.7M
20260415T12Z_MSC_GDPS_WindDir_IsbL-0800_LatLon0.15_PT087H.grib2 2026-04-15 16:25 1.8M
20260415T12Z_MSC_GDPS_WindDir_IsbL-0850_LatLon0.15_PT087H.grib2 2026-04-15 16:25 1.9M
20260415T12Z_MSC_GDPS_WindDir_IsbL-0875_LatLon0.15_PT087H.grib2 2026-04-15 16:25 2.0M
20260415T12Z_MSC_GDPS_WindDir_IsbL-0900_LatLon0.15_PT087H.grib2 2026-04-15 16:25 2.0M
20260415T12Z_MSC_GDPS_WindDir_IsbL-0925_LatLon0.15_PT087H.grib2 2026-04-15 16:25 2.0M
20260415T12Z_MSC_GDPS_WindDir_IsbL-0950_LatLon0.15_PT087H.grib2 2026-04-15 16:25 2.0M
20260415T12Z_MSC_GDPS_WindDir_IsbL-0970_LatLon0.15_PT087H.grib2 2026-04-15 16:25 2.0M
20260415T12Z_MSC_GDPS_WindDir_IsbL-0985_LatLon0.15_PT087H.grib2 2026-04-15 16:25 2.0M
20260415T12Z_MSC_GDPS_WindDir_IsbL-1000_LatLon0.15_PT087H.grib2 2026-04-15 16:25 2.1M
20260415T12Z_MSC_GDPS_WindDir_IsbL-1015_LatLon0.15_PT087H.grib2 2026-04-15 16:25 2.0M
20260415T12Z_MSC_GDPS_WindGust-Max_AGL-10m_LatLon0.15_PT087H.grib2 2026-04-15 16:25 2.2M
20260415T12Z_MSC_GDPS_WindGust-Min_AGL-10m_LatLon0.15_PT087H.grib2 2026-04-15 16:25 2.2M
20260415T12Z_MSC_GDPS_WindGust_AGL-10m_LatLon0.15_PT087H.grib2 2026-04-15 16:25 2.1M
20260415T12Z_MSC_GDPS_WindSpeed_AGL-10m_LatLon0.15_PT087H.grib2 2026-04-15 16:25 1.1M
20260415T12Z_MSC_GDPS_WindSpeed_AGL-120m_LatLon0.15_PT087H.grib2 2026-04-15 16:25 1.2M
20260415T12Z_MSC_GDPS_WindSpeed_AGL-40m_LatLon0.15_PT087H.grib2 2026-04-15 16:25 1.2M
20260415T12Z_MSC_GDPS_WindSpeed_AGL-80m_LatLon0.15_PT087H.grib2 2026-04-15 16:25 1.2M
20260415T12Z_MSC_GDPS_WindSpeed_IsbL-0001_LatLon0.15_PT087H.grib2 2026-04-15 16:25 635K
20260415T12Z_MSC_GDPS_WindSpeed_IsbL-0005_LatLon0.15_PT087H.grib2 2026-04-15 16:25 688K
20260415T12Z_MSC_GDPS_WindSpeed_IsbL-0010_LatLon0.15_PT087H.grib2 2026-04-15 16:25 624K
20260415T12Z_MSC_GDPS_WindSpeed_IsbL-0020_LatLon0.15_PT087H.grib2 2026-04-15 16:25 667K
20260415T12Z_MSC_GDPS_WindSpeed_IsbL-0030_LatLon0.15_PT087H.grib2 2026-04-15 16:25 850K
20260415T12Z_MSC_GDPS_WindSpeed_IsbL-0050_LatLon0.15_PT087H.grib2 2026-04-15 16:25 909K
20260415T12Z_MSC_GDPS_WindSpeed_IsbL-0100_LatLon0.15_PT087H.grib2 2026-04-15 16:25 1.1M
20260415T12Z_MSC_GDPS_WindSpeed_IsbL-0150_LatLon0.15_PT087H.grib2 2026-04-15 16:25 1.0M
20260415T12Z_MSC_GDPS_WindSpeed_IsbL-0175_LatLon0.15_PT087H.grib2 2026-04-15 16:25 1.0M
20260415T12Z_MSC_GDPS_WindSpeed_IsbL-0200_LatLon0.15_PT087H.grib2 2026-04-15 16:25 1.1M
20260415T12Z_MSC_GDPS_WindSpeed_IsbL-0225_LatLon0.15_PT087H.grib2 2026-04-15 16:25 1.1M
20260415T12Z_MSC_GDPS_WindSpeed_IsbL-0250_LatLon0.15_PT087H.grib2 2026-04-15 16:25 1.1M
20260415T12Z_MSC_GDPS_WindSpeed_IsbL-0275_LatLon0.15_PT087H.grib2 2026-04-15 16:25 1.1M
20260415T12Z_MSC_GDPS_WindSpeed_IsbL-0300_LatLon0.15_PT087H.grib2 2026-04-15 16:25 1.1M
20260415T12Z_MSC_GDPS_WindSpeed_IsbL-0350_LatLon0.15_PT087H.grib2 2026-04-15 16:25 1.1M
20260415T12Z_MSC_GDPS_WindSpeed_IsbL-0400_LatLon0.15_PT087H.grib2 2026-04-15 16:25 1.1M
20260415T12Z_MSC_GDPS_WindSpeed_IsbL-0450_LatLon0.15_PT087H.grib2 2026-04-15 16:25 1.1M
20260415T12Z_MSC_GDPS_WindSpeed_IsbL-0500_LatLon0.15_PT087H.grib2 2026-04-15 16:25 1.1M
20260415T12Z_MSC_GDPS_WindSpeed_IsbL-0550_LatLon0.15_PT087H.grib2 2026-04-15 16:25 1.1M
20260415T12Z_MSC_GDPS_WindSpeed_IsbL-0600_LatLon0.15_PT087H.grib2 2026-04-15 16:25 1.4M
20260415T12Z_MSC_GDPS_WindSpeed_IsbL-0650_LatLon0.15_PT087H.grib2 2026-04-15 16:25 1.4M
20260415T12Z_MSC_GDPS_WindSpeed_IsbL-0700_LatLon0.15_PT087H.grib2 2026-04-15 16:25 1.5M
20260415T12Z_MSC_GDPS_WindSpeed_IsbL-0750_LatLon0.15_PT087H.grib2 2026-04-15 16:25 1.5M
20260415T12Z_MSC_GDPS_WindSpeed_IsbL-0800_LatLon0.15_PT087H.grib2 2026-04-15 16:25 1.6M
20260415T12Z_MSC_GDPS_WindSpeed_IsbL-0850_LatLon0.15_PT087H.grib2 2026-04-15 16:25 1.7M
20260415T12Z_MSC_GDPS_WindSpeed_IsbL-0875_LatLon0.15_PT087H.grib2 2026-04-15 16:25 1.8M
20260415T12Z_MSC_GDPS_WindSpeed_IsbL-0900_LatLon0.15_PT087H.grib2 2026-04-15 16:25 1.8M
20260415T12Z_MSC_GDPS_WindSpeed_IsbL-0925_LatLon0.15_PT087H.grib2 2026-04-15 16:25 1.8M
20260415T12Z_MSC_GDPS_WindSpeed_IsbL-0950_LatLon0.15_PT087H.grib2 2026-04-15 16:25 1.9M
20260415T12Z_MSC_GDPS_WindSpeed_IsbL-0970_LatLon0.15_PT087H.grib2 2026-04-15 16:25 1.9M
20260415T12Z_MSC_GDPS_WindSpeed_IsbL-0985_LatLon0.15_PT087H.grib2 2026-04-15 16:25 1.9M
20260415T12Z_MSC_GDPS_WindSpeed_IsbL-1000_LatLon0.15_PT087H.grib2 2026-04-15 16:25 1.8M
20260415T12Z_MSC_GDPS_WindSpeed_IsbL-1015_LatLon0.15_PT087H.grib2 2026-04-15 16:25 1.8M
20260415T12Z_MSC_GDPS_WindU_AGL-10m_LatLon0.15_PT087H.grib2 2026-04-15 16:25 1.3M
20260415T12Z_MSC_GDPS_WindU_AGL-120m_LatLon0.15_PT087H.grib2 2026-04-15 16:25 1.0M
20260415T12Z_MSC_GDPS_WindU_AGL-40m_LatLon0.15_PT087H.grib2 2026-04-15 16:25 959K
20260415T12Z_MSC_GDPS_WindU_AGL-80m_LatLon0.15_PT087H.grib2 2026-04-15 16:25 1.0M
20260415T12Z_MSC_GDPS_WindU_IsbL-0001_LatLon0.15_PT087H.grib2 2026-04-15 16:25 633K
20260415T12Z_MSC_GDPS_WindU_IsbL-0005_LatLon0.15_PT087H.grib2 2026-04-15 16:25 687K
20260415T12Z_MSC_GDPS_WindU_IsbL-0010_LatLon0.15_PT087H.grib2 2026-04-15 16:25 698K
20260415T12Z_MSC_GDPS_WindU_IsbL-0020_LatLon0.15_PT087H.grib2 2026-04-15 16:25 735K
20260415T12Z_MSC_GDPS_WindU_IsbL-0030_LatLon0.15_PT087H.grib2 2026-04-15 16:25 732K
20260415T12Z_MSC_GDPS_WindU_IsbL-0050_LatLon0.15_PT087H.grib2 2026-04-15 16:25 700K
20260415T12Z_MSC_GDPS_WindU_IsbL-0100_LatLon0.15_PT087H.grib2 2026-04-15 16:25 921K
20260415T12Z_MSC_GDPS_WindU_IsbL-0150_LatLon0.15_PT087H.grib2 2026-04-15 16:25 1.0M
20260415T12Z_MSC_GDPS_WindU_IsbL-0175_LatLon0.15_PT087H.grib2 2026-04-15 16:25 1.0M
20260415T12Z_MSC_GDPS_WindU_IsbL-0200_LatLon0.15_PT087H.grib2 2026-04-15 16:25 1.0M
20260415T12Z_MSC_GDPS_WindU_IsbL-0225_LatLon0.15_PT087H.grib2 2026-04-15 16:25 1.1M
20260415T12Z_MSC_GDPS_WindU_IsbL-0250_LatLon0.15_PT087H.grib2 2026-04-15 16:25 847K
20260415T12Z_MSC_GDPS_WindU_IsbL-0275_LatLon0.15_PT087H.grib2 2026-04-15 16:25 874K
20260415T12Z_MSC_GDPS_WindU_IsbL-0300_LatLon0.15_PT087H.grib2 2026-04-15 16:25 864K
20260415T12Z_MSC_GDPS_WindU_IsbL-0350_LatLon0.15_PT087H.grib2 2026-04-15 16:25 881K
20260415T12Z_MSC_GDPS_WindU_IsbL-0400_LatLon0.15_PT087H.grib2 2026-04-15 16:25 881K
20260415T12Z_MSC_GDPS_WindU_IsbL-0450_LatLon0.15_PT087H.grib2 2026-04-15 16:25 1.1M
20260415T12Z_MSC_GDPS_WindU_IsbL-0500_LatLon0.15_PT087H.grib2 2026-04-15 16:25 1.1M
20260415T12Z_MSC_GDPS_WindU_IsbL-0550_LatLon0.15_PT087H.grib2 2026-04-15 16:25 1.1M
20260415T12Z_MSC_GDPS_WindU_IsbL-0600_LatLon0.15_PT087H.grib2 2026-04-15 16:25 1.1M
20260415T12Z_MSC_GDPS_WindU_IsbL-0650_LatLon0.15_PT087H.grib2 2026-04-15 16:25 1.2M
20260415T12Z_MSC_GDPS_WindU_IsbL-0700_LatLon0.15_PT087H.grib2 2026-04-15 16:25 1.2M
20260415T12Z_MSC_GDPS_WindU_IsbL-0750_LatLon0.15_PT087H.grib2 2026-04-15 16:25 1.3M
20260415T12Z_MSC_GDPS_WindU_IsbL-0800_LatLon0.15_PT087H.grib2 2026-04-15 16:25 1.3M
20260415T12Z_MSC_GDPS_WindU_IsbL-0850_LatLon0.15_PT087H.grib2 2026-04-15 16:25 1.4M
20260415T12Z_MSC_GDPS_WindU_IsbL-0875_LatLon0.15_PT087H.grib2 2026-04-15 16:25 1.4M
20260415T12Z_MSC_GDPS_WindU_IsbL-0900_LatLon0.15_PT087H.grib2 2026-04-15 16:25 1.4M
20260415T12Z_MSC_GDPS_WindU_IsbL-0925_LatLon0.15_PT087H.grib2 2026-04-15 16:25 1.4M
20260415T12Z_MSC_GDPS_WindU_IsbL-0950_LatLon0.15_PT087H.grib2 2026-04-15 16:25 1.4M
20260415T12Z_MSC_GDPS_WindU_IsbL-0970_LatLon0.15_PT087H.grib2 2026-04-15 16:25 1.4M
20260415T12Z_MSC_GDPS_WindU_IsbL-0985_LatLon0.15_PT087H.grib2 2026-04-15 16:25 1.4M
20260415T12Z_MSC_GDPS_WindU_IsbL-1000_LatLon0.15_PT087H.grib2 2026-04-15 16:25 1.4M
20260415T12Z_MSC_GDPS_WindU_IsbL-1015_LatLon0.15_PT087H.grib2 2026-04-15 16:25 1.3M
20260415T12Z_MSC_GDPS_WindV_AGL-10m_LatLon0.15_PT087H.grib2 2026-04-15 16:25 1.6M
20260415T12Z_MSC_GDPS_WindV_AGL-120m_LatLon0.15_PT087H.grib2 2026-04-15 16:25 968K
20260415T12Z_MSC_GDPS_WindV_AGL-40m_LatLon0.15_PT087H.grib2 2026-04-15 16:25 963K
20260415T12Z_MSC_GDPS_WindV_AGL-80m_LatLon0.15_PT087H.grib2 2026-04-15 16:25 969K
20260415T12Z_MSC_GDPS_WindV_IsbL-0001_LatLon0.15_PT087H.grib2 2026-04-15 16:25 759K
20260415T12Z_MSC_GDPS_WindV_IsbL-0005_LatLon0.15_PT087H.grib2 2026-04-15 16:25 777K
20260415T12Z_MSC_GDPS_WindV_IsbL-0010_LatLon0.15_PT087H.grib2 2026-04-15 16:25 800K
20260415T12Z_MSC_GDPS_WindV_IsbL-0020_LatLon0.15_PT087H.grib2 2026-04-15 16:25 851K
20260415T12Z_MSC_GDPS_WindV_IsbL-0030_LatLon0.15_PT087H.grib2 2026-04-15 16:25 847K
20260415T12Z_MSC_GDPS_WindV_IsbL-0050_LatLon0.15_PT087H.grib2 2026-04-15 16:25 898K
20260415T12Z_MSC_GDPS_WindV_IsbL-0100_LatLon0.15_PT087H.grib2 2026-04-15 16:25 844K
20260415T12Z_MSC_GDPS_WindV_IsbL-0150_LatLon0.15_PT087H.grib2 2026-04-15 16:25 1.0M
20260415T12Z_MSC_GDPS_WindV_IsbL-0175_LatLon0.15_PT087H.grib2 2026-04-15 16:25 1.0M
20260415T12Z_MSC_GDPS_WindV_IsbL-0200_LatLon0.15_PT087H.grib2 2026-04-15 16:25 836K
20260415T12Z_MSC_GDPS_WindV_IsbL-0225_LatLon0.15_PT087H.grib2 2026-04-15 16:25 905K
20260415T12Z_MSC_GDPS_WindV_IsbL-0250_LatLon0.15_PT087H.grib2 2026-04-15 16:25 902K
20260415T12Z_MSC_GDPS_WindV_IsbL-0275_LatLon0.15_PT087H.grib2 2026-04-15 16:25 926K
20260415T12Z_MSC_GDPS_WindV_IsbL-0300_LatLon0.15_PT087H.grib2 2026-04-15 16:25 916K
20260415T12Z_MSC_GDPS_WindV_IsbL-0350_LatLon0.15_PT087H.grib2 2026-04-15 16:25 931K
20260415T12Z_MSC_GDPS_WindV_IsbL-0400_LatLon0.15_PT087H.grib2 2026-04-15 16:25 873K
20260415T12Z_MSC_GDPS_WindV_IsbL-0450_LatLon0.15_PT087H.grib2 2026-04-15 16:25 873K
20260415T12Z_MSC_GDPS_WindV_IsbL-0500_LatLon0.15_PT087H.grib2 2026-04-15 16:25 877K
20260415T12Z_MSC_GDPS_WindV_IsbL-0550_LatLon0.15_PT087H.grib2 2026-04-15 16:25 1.1M
20260415T12Z_MSC_GDPS_WindV_IsbL-0600_LatLon0.15_PT087H.grib2 2026-04-15 16:25 1.1M
20260415T12Z_MSC_GDPS_WindV_IsbL-0650_LatLon0.15_PT087H.grib2 2026-04-15 16:25 1.1M
20260415T12Z_MSC_GDPS_WindV_IsbL-0700_LatLon0.15_PT087H.grib2 2026-04-15 16:25 1.2M
20260415T12Z_MSC_GDPS_WindV_IsbL-0750_LatLon0.15_PT087H.grib2 2026-04-15 16:25 1.2M
20260415T12Z_MSC_GDPS_WindV_IsbL-0800_LatLon0.15_PT087H.grib2 2026-04-15 16:25 1.3M
20260415T12Z_MSC_GDPS_WindV_IsbL-0850_LatLon0.15_PT087H.grib2 2026-04-15 16:25 1.4M
20260415T12Z_MSC_GDPS_WindV_IsbL-0875_LatLon0.15_PT087H.grib2 2026-04-15 16:25 1.4M
20260415T12Z_MSC_GDPS_WindV_IsbL-0900_LatLon0.15_PT087H.grib2 2026-04-15 16:25 1.4M
20260415T12Z_MSC_GDPS_WindV_IsbL-0925_LatLon0.15_PT087H.grib2 2026-04-15 16:25 1.4M
20260415T12Z_MSC_GDPS_WindV_IsbL-0950_LatLon0.15_PT087H.grib2 2026-04-15 16:25 1.4M
20260415T12Z_MSC_GDPS_WindV_IsbL-0970_LatLon0.15_PT087H.grib2 2026-04-15 16:25 1.4M
20260415T12Z_MSC_GDPS_WindV_IsbL-0985_LatLon0.15_PT087H.grib2 2026-04-15 16:25 1.4M
20260415T12Z_MSC_GDPS_WindV_IsbL-1000_LatLon0.15_PT087H.grib2 2026-04-15 16:25 1.7M
20260415T12Z_MSC_GDPS_WindV_IsbL-1015_LatLon0.15_PT087H.grib2 2026-04-15 16:25 1.6M